This demonstration page uses our WeatherBlox Daily Observations layout. Learn more.

Left ArrowRight Arrow

34.02893, -84.19858

Hourly Observations for January 6, 2018

Temp ( °F °C ) Dew Point ( °F °C ) Humidity (%) Winds ( mph kmh ) Pressure ( in mb ) Visibility ( mi km ) Precip ( " mm )
12:53 am 00:53 Clear 25 -3.9 6 -14.4 44 44 NNW 9 15 30.43 1031 10 16 0.00 0.00
1:53 am 01:53 Clear 23 -5 7 -13.9 50 50 W 5 7 30.44 1031 10 16 0.00 0.00
2:53 am 02:53 Clear 22 -5.6 7 -13.9 52 52 WNW 6 9 30.44 1031 10 16 0.00 0.00
3:53 am 03:53 Clear 22 -5.6 7 -13.9 52 52 NW 7 11 30.45 1031 10 16 0.00 0.00
4:53 am 04:53 Clear 22 -5.6 6 -14.4 50 50 NW 6 9 30.46 1031 10 16 0.00 0.00
5:53 am 05:53 Clear 21 -6.1 6 -14.4 52 52 WNW 5 7 30.48 1032 10 16 0.00 0.00
6:53 am 06:53 Clear 21 -6.1 6 -14.4 52 52 NW 5 7 30.49 1033 10 16 0.00 0.00
7:53 am 07:53 Sunny 20 -6.7 6 -14.4 55 55 NNW 7 11 30.50 1033 10 16 0.00 0.00
8:53 am 08:53 Sunny 23 -5 7 -13.9 50 50 NW 8 13 30.52 1033 10 16 0.00 0.00
9:53 am 09:53 Sunny 27 -2.8 9 -12.8 46 46 NW 7 11 30.53 1034 10 16 0.00 0.00
10:53 am 10:53 Sunny 30 -1.1 9 -12.8 41 41 NW 10 17 30.55 1034 10 16 0.00 0.00
11:53 am 11:53 Sunny 34 1.1 10 -12.2 37 37 NNW 15 24 30.53 1034 10 16 0.00 0.00
12:53 pm 12:53 Sunny 35 1.7 10 -12.2 35 35 NW 15 24 30.50 1033 10 16 0.00 0.00
1:53 pm 13:53 Sunny 37 2.8 3 -16.1 24 24 NW 13 20 30.48 1032 10 16 0.00 0.00
2:53 pm 14:53 Sunny 37 2.8 -1 -18.3 20 20 WNW 10 17 30.48 1032 10 16 0.00 0.00
3:53 pm 15:53 Sunny 36 2.2 -7 -21.7 15 15 NW 13 20 30.48 1032 10 16 0.00 0.00
4:53 pm 16:53 Sunny 35 1.7 -4 -20 18 18 NW 13 20 30.50 1033 10 16 0.00 0.00
5:53 pm 17:53 Clear 31 -0.6 -3 -19.4 23 23 NW 8 13 30.50 1033 10 16 0.00 0.00
6:53 pm 18:53 Clear 29 -1.7 -2 -18.9 26 26 NW 5 7 30.51 1033 10 16 0.00 0.00
7:53 pm 19:53 Clear 28 -2.2 -2 -18.9 27 27 NW 8 13 30.54 1034 10 16 0.00 0.00
8:53 pm 20:53 Clear 27 -2.8 -2 -18.9 28 28 NNW 9 15 30.53 1034 10 16 0.00 0.00
9:53 pm 21:53 Clear 25 -3.9 -3 -19.4 29 29 Calm 30.53 1034 10 16 0.00 0.00
10:53 pm 22:53 Clear 22 -5.6 0 -17.8 38 38 N 3 6 30.53 1034 10 16 0.00 0.00
11:53 pm 23:53 Clear 24 -4.4 -2 -18.9 32 32 Calm 30.53 1034 10 16 0.00 0.00

Powered by AerisWeather